| time (UTC) | temp C | wind direction | speed KPH | gust KPH | rain 1hr cm | rain 24hr cm | rain mn cm | humidity % | barometer mb |
| 20260504150808 | 20 | 161 | 9.7 | 12.9 | 0.00 | 0.00 | 0.00 | 44 | 1016.9 |
| 20260504150305 | 19 | 177 | 0.0 | 1.6 | 0.00 | 0.00 | 0.00 | 46 | 1017.0 |
| 20260504141235 | 17 | 187 | 3.2 | 4.8 | 0.00 | 0.00 | 0.00 | 55 | 1017.2 |
| 20260504140731 | 17 | 181 | 1.6 | 9.7 | 0.00 | 0.00 | 0.00 | 55 | 1017.3 |
| 20260504140227 | 16 | 183 | 1.6 | 4.8 | 0.00 | 0.00 | 0.00 | 57 | 1017.2 |
| 20260504130655 | 13 | 160 | 0.0 | 1.6 | 0.00 | 0.00 | 0.00 | 70 | 1017.2 |
| 20260504130152 | 12 | 156 | 0.0 | 1.6 | 0.00 | 0.00 | 0.00 | 71 | 1017.2 |
| 20260504120116 | 7 | 178 | 0.0 | 0.0 | 0.00 | 0.00 | 0.00 | 90 | 1017.4 |
| 20260504110543 | 6 | 208 | 0.0 | 0.0 | 0.00 | 0.00 | 0.00 | 90 | 1016.9 |
| 20260504100505 | 6 | 209 | 0.0 | 0.0 | 0.00 | 0.00 | 0.00 | 89 | 1016.5 |
| 20260504081858 | 7 | 209 | 0.0 | 0.0 | 0.00 | 0.00 | 0.00 | 87 | 1016.7 |
| 20260504081355 | 7 | 209 | 0.0 | 0.0 | 0.00 | 0.00 | 0.00 | 87 | 1016.7 |
| 20260504080850 | 7 | 209 | 0.0 | 0.0 | 0.00 | 0.00 | 0.00 | 87 | 1016.6 |
| 20260504080348 | 7 | 209 | 0.0 | 0.0 | 0.00 | 0.00 | 0.00 | 87 | 1016.7 |
| 20260504070315 | 7 | 209 | 0.0 | 0.0 | 0.00 | 0.00 | 0.00 | 85 | 1017.0 |
| 20260504060235 | 8 | 211 | 0.0 | 0.0 | 0.00 | 0.00 | 0.00 | 80 | 1017.0 |
| 20260504050704 | 10 | 219 | 0.0 | 0.0 | 0.00 | 0.00 | 0.00 | 76 | 1017.4 |
| 20260504050200 | 10 | 219 | 0.0 | 0.0 | 0.00 | 0.00 | 0.00 | 75 | 1017.4 |
| 20260504045657 | 10 | 219 | 0.0 | 0.0 | 0.00 | 0.00 | 0.00 | 74 | 1017.5 |
| 20260504045152 | 10 | 219 | 0.0 | 0.0 | 0.00 | 0.00 | 0.00 | 74 | 1017.3 |
| 20260504044650 | 10 | 219 | 0.0 | 0.0 | 0.00 | 0.00 | 0.00 | 73 | 1017.4 |
| 20260504044146 | 10 | 219 | 0.0 | 0.0 | 0.00 | 0.00 | 0.00 | 73 | 1017.4 |
| 20260504043643 | 10 | 219 | 0.0 | 0.0 | 0.00 | 0.00 | 0.00 | 72 | 1017.2 |
| 20260504043141 | 10 | 219 | 0.0 | 1.6 | 0.00 | 0.00 | 0.00 | 72 | 1017.4 |
| 20260504042638 | 10 | 219 | 0.0 | 1.6 | 0.00 | 0.00 | 0.00 | 71 | 1017.4 |
| 20260504042135 | 10 | 219 | 0.0 | 0.0 | 0.00 | 0.00 | 0.00 | 70 | 1017.5 |
| 20260504041630 | 10 | 219 | 0.0 | 0.0 | 0.00 | 0.00 | 0.00 | 69 | 1017.6 |
| 20260504041127 | 10 | 219 | 0.0 | 0.0 | 0.00 | 0.00 | 0.00 | 69 | 1017.4 |
| 20260504040624 | 11 | 219 | 0.0 | 0.0 | 0.00 | 0.00 | 0.00 | 68 | 1017.6 |
| 20260504040121 | 11 | 219 | 0.0 | 0.0 | 0.00 | 0.00 | 0.00 | 68 | 1017.4 |
| 20260504035618 | 11 | 219 | 0.0 | 0.0 | 0.00 | 0.00 | 0.00 | 67 | 1017.5 |
| 20260504035114 | 11 | 219 | 0.0 | 0.0 | 0.00 | 0.00 | 0.00 | 67 | 1017.5 |
| 20260504034612 | 11 | 219 | 0.0 | 0.0 | 0.00 | 0.00 | 0.00 | 68 | 1017.5 |
| 20260504034108 | 11 | 219 | 0.0 | 0.0 | 0.00 | 0.00 | 0.00 | 67 | 1017.6 |
| 20260504033607 | 11 | 219 | 0.0 | 0.0 | 0.00 | 0.00 | 0.00 | 66 | 1017.6 |
| 20260504033104 | 11 | 219 | 0.0 | 0.0 | 0.00 | 0.00 | 0.00 | 66 | 1017.5 |
| 20260504032601 | 11 | 219 | 0.0 | 0.0 | 0.00 | 0.00 | 0.00 | 66 | 1017.6 |
| 20260504032058 | 12 | 219 | 0.0 | 0.0 | 0.00 | 0.00 | 0.00 | 65 | 1017.4 |
| 20260504031554 | 12 | 219 | 0.0 | 0.0 | 0.00 | 0.00 | 0.00 | 65 | 1017.5 |
| 20260504031050 | 12 | 219 | 0.0 | 0.0 | 0.00 | 0.00 | 0.00 | 65 | 1017.5 |
| 20260504030548 | 12 | 219 | 0.0 | 1.6 | 0.00 | 0.00 | 0.00 | 63 | 1017.5 |
| 20260504030044 | 12 | 219 | 0.0 | 0.0 | 0.00 | 0.00 | 0.00 | 63 | 1017.5 |
| 20260504025542 | 12 | 219 | 0.0 | 0.0 | 0.00 | 0.00 | 0.00 | 63 | 1017.3 |
| 20260504025038 | 12 | 219 | 0.0 | 0.0 | 0.00 | 0.00 | 0.00 | 62 | 1017.3 |
| 20260504024535 | 12 | 219 | 0.0 | 0.0 | 0.00 | 0.00 | 0.00 | 63 | 1017.3 |
| 20260504024032 | 12 | 219 | 0.0 | 0.0 | 0.00 | 0.00 | 0.00 | 63 | 1017.3 |
| 20260504023529 | 13 | 219 | 0.0 | 0.0 | 0.00 | 0.00 | 0.00 | 61 | 1017.2 |
| 20260504023024 | 13 | 220 | 0.0 | 0.0 | 0.00 | 0.00 | 0.00 | 58 | 1017.2 |
| 20260504022520 | 13 | 220 | 0.0 | 0.0 | 0.00 | 0.00 | 0.00 | 57 | 1017.2 |
| 20260504022017 | 13 | 220 | 0.0 | 1.6 | 0.00 | 0.00 | 0.00 | 58 | 1017.0 |
| 20260504021515 | 13 | 221 | 1.6 | 1.6 | 0.00 | 0.00 | 0.00 | 59 | 1017.0 |
| 20260504021012 | 13 | 220 | 0.0 | 0.0 | 0.00 | 0.00 | 0.00 | 57 | 1016.8 |
| 20260504020508 | 13 | 221 | 0.0 | 0.0 | 0.00 | 0.00 | 0.00 | 57 | 1016.8 |
| 20260504020005 | 13 | 221 | 0.0 | 1.6 | 0.00 | 0.00 | 0.00 | 57 | 1016.7 |
| 20260504015501 | 13 | 221 | 0.0 | 0.0 | 0.00 | 0.00 | 0.00 | 55 | 1016.8 |
| 20260504014957 | 13 | 220 | 0.0 | 0.0 | 0.00 | 0.00 | 0.00 | 55 | 1016.8 |
| 20260504014453 | 13 | 221 | 0.0 | 0.0 | 0.00 | 0.00 | 0.00 | 55 | 1016.9 |
| 20260504013950 | 13 | 221 | 0.0 | 0.0 | 0.00 | 0.00 | 0.00 | 55 | 1016.7 |
| 20260504013449 | 13 | 221 | 0.0 | 0.0 | 0.00 | 0.00 | 0.00 | 54 | 1016.9 |
| 20260504012944 | 13 | 221 | 0.0 | 0.0 | 0.00 | 0.00 | 0.00 | 52 | 1016.7 |
| 20260504012443 | 14 | 221 | 0.0 | 0.0 | 0.00 | 0.00 | 0.00 | 52 | 1016.6 |
| 20260504011940 | 14 | 221 | 0.0 | 0.0 | 0.00 | 0.00 | 0.00 | 52 | 1016.4 |
| 20260504011436 | 14 | 221 | 0.0 | 0.0 | 0.00 | 0.00 | 0.00 | 51 | 1016.4 |
| 20260504010932 | 15 | 221 | 0.0 | 0.0 | 0.00 | 0.00 | 0.00 | 50 | 1016.4 |
| 20260504010428 | 15 | 221 | 0.0 | 0.0 | 0.00 | 0.00 | 0.00 | 51 | 1016.3 |
| 20260504005925 | 15 | 221 | 0.0 | 0.0 | 0.00 | 0.00 | 0.00 | 47 | 1016.3 |
| 20260504005421 | 15 | 221 | 0.0 | 0.0 | 0.00 | 0.00 | 0.00 | 46 | 1016.3 |
| 20260504004919 | 15 | 221 | 0.0 | 0.0 | 0.00 | 0.00 | 0.00 | 44 | 1016.1 |
| 20260504004417 | 16 | 221 | 0.0 | 0.0 | 0.00 | 0.00 | 0.00 | 44 | 1016.2 |
| 20260504003913 | 16 | 221 | 0.0 | 0.0 | 0.00 | 0.00 | 0.00 | 44 | 1016.1 |
| 20260504003410 | 16 | 221 | 0.0 | 0.0 | 0.00 | 0.00 | 0.00 | 42 | 1015.9 |
| 20260504002906 | 16 | 221 | 0.0 | 0.0 | 0.00 | 0.00 | 0.00 | 40 | 1016.2 |
| 20260504002403 | 17 | 221 | 1.6 | 1.6 | 0.00 | 0.00 | 0.00 | 40 | 1016.2 |
| 20260504001901 | 17 | 221 | 0.0 | 1.6 | 0.00 | 0.00 | 0.00 | 38 | 1016.0 |
| 20260504001359 | 17 | 221 | 0.0 | 1.6 | 0.00 | 0.00 | 0.00 | 38 | 1016.1 |
| 20260504000855 | 17 | 221 | 1.6 | 1.6 | 0.00 | 0.00 | 0.00 | 36 | 1016.0 |
| 20260504000354 | 18 | 224 | 0.0 | 1.6 | 0.00 | 0.00 | 0.00 | 35 | 1016.1 |
| 20260503235849 | 18 | 227 | 0.0 | 1.6 | 0.00 | 0.00 | 0.00 | 34 | 1015.9 |
| 20260503235347 | 18 | 224 | 1.6 | 3.2 | 0.00 | 0.00 | 0.00 | 33 | 1016.0 |
| 20260503234844 | 18 | 171 | 3.2 | 3.2 | 0.00 | 0.00 | 0.00 | 37 | 1016.0 |
| 20260503234342 | 18 | 151 | 3.2 | 3.2 | 0.00 | 0.00 | 0.00 | 37 | 1016.1 |
| 20260503233839 | 18 | 154 | 1.6 | 3.2 | 0.00 | 0.00 | 0.00 | 36 | 1016.0 |
| 20260503233335 | 19 | 133 | 3.2 | 3.2 | 0.00 | 0.00 | 0.00 | 37 | 1015.9 |
| 20260503232832 | 19 | 223 | 0.0 | 3.2 | 0.00 | 0.00 | 0.00 | 36 | 1015.9 |
| 20260503232329 | 19 | 181 | 3.2 | 8.0 | 0.00 | 0.00 | 0.00 | 36 | 1015.9 |
| 20260503231827 | 20 | 164 | 3.2 | 4.8 | 0.00 | 0.00 | 0.00 | 36 | 1015.9 |
| 20260503231324 | 20 | 157 | 1.6 | 1.6 | 0.00 | 0.00 | 0.00 | 37 | 1016.1 |
| 20260503230820 | 20 | 142 | 0.0 | 1.6 | 0.00 | 0.00 | 0.00 | 36 | 1015.9 |
| 20260503230317 | 20 | 149 | 0.0 | 3.2 | 0.00 | 0.00 | 0.00 | 35 | 1015.9 |
| 20260503225815 | 21 | 160 | 1.6 | 3.2 | 0.00 | 0.00 | 0.00 | 35 | 1015.8 |
| 20260503225310 | 20 | 148 | 0.0 | 3.2 | 0.00 | 0.00 | 0.00 | 36 | 1016.0 |
| 20260503224807 | 21 | 98 | 4.8 | 11.3 | 0.00 | 0.00 | 0.00 | 35 | 1016.1 |
| 20260503224304 | 21 | 248 | 4.8 | 4.8 | 0.00 | 0.00 | 0.00 | 35 | 1015.9 |
| 20260503223802 | 21 | 142 | 1.6 | 3.2 | 0.00 | 0.00 | 0.00 | 34 | 1016.1 |
| 20260503223259 | 21 | 83 | 0.0 | 3.2 | 0.00 | 0.00 | 0.00 | 33 | 1016.1 |
| 20260503222755 | 21 | 191 | 4.8 | 4.8 | 0.00 | 0.00 | 0.00 | 33 | 1015.9 |
| 20260503222254 | 21 | 183 | 6.4 | 8.0 | 0.00 | 0.00 | 0.00 | 32 | 1016.0 |
| 20260503221751 | 21 | 226 | 6.4 | 12.9 | 0.00 | 0.00 | 0.00 | 32 | 1016.0 |
| 20260503221249 | 22 | 172 | 1.6 | 3.2 | 0.00 | 0.00 | 0.00 | 33 | 1015.8 |
| 20260503220745 | 22 | 170 | 1.6 | 1.6 | 0.00 | 0.00 | 0.00 | 31 | 1016.0 |
| 20260503220242 | 22 | 241 | 4.8 | 4.8 | 0.00 | 0.00 | 0.00 | 31 | 1016.1 |
| 20260503215739 | 21 | 167 | 0.0 | 1.6 | 0.00 | 0.00 | 0.00 | 32 | 1016.2 |
| 20260503215236 | 22 | 176 | 1.6 | 4.8 | 0.00 | 0.00 | 0.00 | 31 | 1016.1 |
| 20260503214734 | 21 | 236 | 3.2 | 4.8 | 0.00 | 0.00 | 0.00 | 33 | 1016.2 |
| 20260503214231 | 21 | 175 | 3.2 | 3.2 | 0.00 | 0.00 | 0.00 | 32 | 1016.0 |
| 20260503213729 | 21 | 179 | 3.2 | 12.9 | 0.00 | 0.00 | 0.00 | 32 | 1016.2 |
| 20260503213226 | 21 | 241 | 6.4 | 9.7 | 0.00 | 0.00 | 0.00 | 30 | 1016.2 |
| 20260503212723 | 21 | 101 | 1.6 | 4.8 | 0.00 | 0.00 | 0.00 | 35 | 1016.3 |
| 20260503212220 | 21 | 183 | 6.4 | 11.3 | 0.00 | 0.00 | 0.00 | 33 | 1016.3 |
| 20260503211718 | 21 | 193 | 6.4 | 8.0 | 0.00 | 0.00 | 0.00 | 34 | 1016.5 |
| 20260503211214 | 22 | 242 | 4.8 | 4.8 | 0.00 | 0.00 | 0.00 | 32 | 1016.2 |
| 20260503210709 | 22 | 179 | 1.6 | 8.0 | 0.00 | 0.00 | 0.00 | 31 | 1016.3 |
| 20260503210207 | 22 | 185 | 1.6 | 4.8 | 0.00 | 0.00 | 0.00 | 31 | 1016.4 |
| 20260503205703 | 21 | 194 | 1.6 | 3.2 | 0.00 | 0.00 | 0.00 | 31 | 1016.4 |
| 20260503205158 | 21 | 87 | 1.6 | 4.8 | 0.00 | 0.00 | 0.00 | 32 | 1016.4 |
| 20260503204655 | 21 | 208 | 4.8 | 8.0 | 0.00 | 0.00 | 0.00 | 33 | 1016.4 |
| 20260503204153 | 21 | 192 | 1.6 | 9.7 | 0.00 | 0.00 | 0.00 | 32 | 1016.6 |
| 20260503203649 | 21 | 173 | 1.6 | 9.7 | 0.00 | 0.00 | 0.00 | 31 | 1016.6 |
| 20260503203148 | 21 | 73 | 4.8 | 4.8 | 0.00 | 0.00 | 0.00 | 32 | 1016.7 |
| 20260503202644 | 21 | 70 | 4.8 | 8.0 | 0.00 | 0.00 | 0.00 | 32 | 1016.8 |
| 20260503202142 | 21 | 179 | 3.2 | 8.0 | 0.00 | 0.00 | 0.00 | 31 | 1016.8 |
| 20260503201640 | 21 | 205 | 3.2 | 3.2 | 0.00 | 0.00 | 0.00 | 33 | 1017.0 |
| 20260503201137 | 21 | 183 | 6.4 | 14.5 | 0.00 | 0.00 | 0.00 | 31 | 1016.9 |
| 20260503200633 | 21 | 192 | 3.2 | 8.0 | 0.00 | 0.00 | 0.00 | 33 | 1017.1 |
| 20260503200129 | 21 | 209 | 3.2 | 8.0 | 0.00 | 0.00 | 0.00 | 33 | 1017.1 |
| 20260503195627 | 20 | 194 | 6.4 | 9.7 | 0.00 | 0.00 | 0.00 | 33 | 1017.3 |
| 20260503195124 | 20 | 193 | 0.0 | 9.7 | 0.00 | 0.00 | 0.00 | 32 | 1017.4 |
| 20260503194621 | 20 | 202 | 4.8 | 8.0 | 0.00 | 0.00 | 0.00 | 33 | 1017.5 |
| 20260503194116 | 21 | 195 | 4.8 | 14.5 | 0.00 | 0.00 | 0.00 | 34 | 1017.6 |
| 20260503193613 | 21 | 6 | 4.8 | 4.8 | 0.00 | 0.00 | 0.00 | 31 | 1017.6 |
| 20260503193108 | 21 | 209 | 3.2 | 4.8 | 0.00 | 0.00 | 0.00 | 33 | 1017.7 |
| 20260503192604 | 21 | 120 | 1.6 | 4.8 | 0.00 | 0.00 | 0.00 | 33 | 1017.7 |
| 20260503192100 | 21 | 104 | 4.8 | 4.8 | 0.00 | 0.00 | 0.00 | 33 | 1017.7 |
| 20260503191557 | 20 | 187 | 0.0 | 4.8 | 0.00 | 0.00 | 0.00 | 33 | 1018.1 |
| 20260503191054 | 20 | 202 | 3.2 | 4.8 | 0.00 | 0.00 | 0.00 | 33 | 1018.2 |
| 20260503190551 | 21 | 193 | 3.2 | 4.8 | 0.00 | 0.00 | 0.00 | 30 | 1018.3 |
| 20260503190048 | 20 | 161 | 3.2 | 4.8 | 0.00 | 0.00 | 0.00 | 31 | 1018.4 |
| 20260503185544 | 20 | 151 | 1.6 | 8.0 | 0.00 | 0.00 | 0.00 | 30 | 1018.3 |
| 20260503185044 | 20 | 206 | 4.8 | 14.5 | 0.00 | 0.00 | 0.00 | 31 | 1018.3 |
| 20260503184540 | 20 | 107 | 4.8 | 8.0 | 0.00 | 0.00 | 0.00 | 35 | 1018.2 |
| 20260503184037 | 19 | 120 | 3.2 | 3.2 | 0.00 | 0.00 | 0.00 | 34 | 1018.4 |
| 20260503183534 | 20 | 203 | 6.4 | 8.0 | 0.00 | 0.00 | 0.00 | 33 | 1018.6 |
| 20260503183031 | 20 | 231 | 8.0 | 9.7 | 0.00 | 0.00 | 0.00 | 31 | 1018.7 |
| 20260503182529 | 20 | 172 | 3.2 | 4.8 | 0.00 | 0.00 | 0.00 | 35 | 1018.8 |
| 20260503182027 | 19 | 141 | 1.6 | 4.8 | 0.00 | 0.00 | 0.00 | 36 | 1018.8 |
| 20260503181524 | 20 | 221 | 3.2 | 3.2 | 0.00 | 0.00 | 0.00 | 33 | 1019.0 |
| 20260503181020 | 20 | 145 | 1.6 | 3.2 | 0.00 | 0.00 | 0.00 | 35 | 1019.0 |
| 20260503180518 | 20 | 135 | 0.0 | 4.8 | 0.00 | 0.00 | 0.00 | 34 | 1018.9 |
| 20260503180015 | 18 | 150 | 1.6 | 3.2 | 0.00 | 0.00 | 0.00 | 38 | 1018.7 |
| 20260503175512 | 19 | 128 | 1.6 | 9.7 | 0.00 | 0.00 | 0.00 | 34 | 1019.1 |
| 20260503175009 | 19 | 214 | 8.0 | 11.3 | 0.00 | 0.00 | 0.00 | 33 | 1018.9 |
| 20260503174506 | 19 | 135 | 1.6 | 3.2 | 0.00 | 0.00 | 0.00 | 36 | 1018.9 |
| 20260503174002 | 18 | 219 | 4.8 | 9.7 | 0.00 | 0.00 | 0.00 | 39 | 1018.9 |
| 20260503173457 | 18 | 211 | 1.6 | 8.0 | 0.00 | 0.00 | 0.00 | 38 | 1018.9 |
| 20260503172954 | 19 | 163 | 3.2 | 4.8 | 0.00 | 0.00 | 0.00 | 35 | 1018.9 |
| 20260503172452 | 18 | 153 | 3.2 | 4.8 | 0.00 | 0.00 | 0.00 | 35 | 1019.1 |
| 20260503171948 | 19 | 222 | 3.2 | 4.8 | 0.00 | 0.00 | 0.00 | 37 | 1019.1 |
| 20260503171445 | 18 | 131 | 0.0 | 3.2 | 0.00 | 0.00 | 0.00 | 37 | 1019.1 |
| 20260503170943 | 18 | 136 | 3.2 | 4.8 | 0.00 | 0.00 | 0.00 | 35 | 1019.5 |
| 20260503170438 | 18 | 78 | 0.0 | 9.7 | 0.00 | 0.00 | 0.00 | 37 | 1019.4 |